THY1AD LTFM-LDDU

Flight info

Callsign THY1AD
Flight time N/A
Altitude 36000
Route VADEN N618 BAKLO DCT NAPET T214 LETNI DCT SKJ DCT ENFAR DCT RETRA DCT MOKUN
Aircraft A321/M-SDE3FGHIRWY/LB1

Departure

Time 2026-05-01 08:46
Airport İstanbul Airport (LTFM)

Arrival

Time N/A
Airport Dubrovnik Ruđer Bošković Airport (LDDU)
Time Latitude Longitude Altitude Speed Heading
2026-05-01 08:19 41.26600 28.74998 331 ft 0 kts 290°
2026-05-01 08:19 41.26600 28.74999 331 ft 0 kts 290°
2026-05-01 08:30 41.26600 28.75000 334 ft 0 kts 290°
2026-05-01 08:36 41.26599 28.75003 329 ft 2 kts 290°
2026-05-01 08:36 41.26591 28.75036 330 ft 4 kts 283°
2026-05-01 08:36 41.26587 28.75071 331 ft 4 kts 273°
2026-05-01 08:37 41.26588 28.75106 331 ft 4 kts 252°
2026-05-01 08:37 41.26600 28.75132 329 ft 3 kts 201°
2026-05-01 08:37 41.26607 28.75136 330 ft 0 kts 197°
2026-05-01 08:40 41.26604 28.75134 334 ft 2 kts 198°
2026-05-01 08:41 41.26584 28.75126 330 ft 3 kts 198°
2026-05-01 08:41 41.26560 28.75116 330 ft 4 kts 197°
2026-05-01 08:41 41.26528 28.75103 333 ft 5 kts 197°
2026-05-01 08:41 41.26488 28.75087 332 ft 6 kts 197°
2026-05-01 08:42 41.26447 28.75070 331 ft 6 kts 197°
2026-05-01 08:42 41.26407 28.75054 334 ft 6 kts 197°
2026-05-01 08:42 41.26369 28.75039 332 ft 6 kts 197°
2026-05-01 08:42 41.26319 28.75018 331 ft 8 kts 197°
2026-05-01 08:43 41.26268 28.75011 331 ft 7 kts 171°
2026-05-01 08:43 41.26245 28.75049 333 ft 5 kts 103°
2026-05-01 08:43 41.26244 28.75100 334 ft 7 kts 89°
2026-05-01 08:43 41.26244 28.75173 334 ft 9 kts 89°
2026-05-01 08:44 41.26245 28.75249 334 ft 8 kts 89°
2026-05-01 08:44 41.26246 28.75327 334 ft 9 kts 89°
2026-05-01 08:44 41.26247 28.75414 334 ft 10 kts 89°
2026-05-01 08:44 41.26249 28.75510 334 ft 11 kts 89°
2026-05-01 08:45 41.26250 28.75610 334 ft 8 kts 89°
2026-05-01 08:45 41.26272 28.75659 333 ft 5 kts 30°
2026-05-01 08:45 41.26306 28.75665 333 ft 5 kts 360°
2026-05-01 08:45 41.26438 28.75664 333 ft 50 kts 359°
2026-05-01 08:46 41.27019 28.75651 333 ft 114 kts 359°
2026-05-01 08:46 41.27982 28.75639 505 ft 148 kts
2026-05-01 08:46 41.28985 28.75637 1344 ft 142 kts
2026-05-01 08:46 41.29953 28.75895 1985 ft 150 kts 34°
2026-05-01 08:47 41.30748 28.76917 2422 ft 169 kts 43°
2026-05-01 08:47 41.31769 28.77878 2651 ft 191 kts 31°
2026-05-01 08:47 41.33015 28.78789 2921 ft 217 kts 28°
2026-05-01 08:47 41.34369 28.79739 3647 ft 222 kts 28°
2026-05-01 08:48 41.35729 28.80700 4431 ft 226 kts 28°
2026-05-01 08:48 41.37121 28.81702 5243 ft 229 kts 29°
2026-05-01 08:48 41.38619 28.82454 6020 ft 236 kts
2026-05-01 08:48 41.40310 28.82370 6643 ft 248 kts 357°
2026-05-01 08:49 41.42052 28.82139 7329 ft 255 kts 357°
2026-05-01 08:49 41.43842 28.81902 8001 ft 260 kts 356°
2026-05-01 08:49 41.45667 28.81665 8672 ft 268 kts 355°
2026-05-01 08:49 41.47541 28.81424 9375 ft 274 kts 355°
2026-05-01 08:50 41.49470 28.81180 10068 ft 281 kts 354°
2026-05-01 08:50 41.51471 28.80931 10407 ft 300 kts 354°
2026-05-01 08:50 41.53636 28.80663 10596 ft 324 kts 354°
2026-05-01 08:50 41.55902 28.80379 10986 ft 337 kts 352°
2026-05-01 08:51 41.58190 28.79660 11603 ft 340 kts 337°
2026-05-01 08:51 41.60283 28.78179 12256 ft 342 kts 323°
2026-05-01 08:51 41.62035 28.76018 12931 ft 343 kts 308°
2026-05-01 08:51 41.63311 28.73321 13683 ft 343 kts 293°
2026-05-01 08:52 41.64203 28.70349 14375 ft 345 kts 290°
2026-05-01 08:52 41.65076 28.67356 15173 ft 342 kts 290°
2026-05-01 08:52 41.65948 28.64369 15780 ft 347 kts 289°
2026-05-01 08:52 41.66687 28.61358 16528 ft 344 kts 282°
2026-05-01 08:53 41.67022 28.58166 17061 ft 349 kts 271°
2026-05-01 08:53 41.67050 28.54911 17692 ft 351 kts 270°
2026-05-01 08:53 41.67081 28.51639 18313 ft 354 kts 271°
2026-05-01 08:53 41.67121 28.48327 18859 ft 357 kts 270°
2026-05-01 08:54 41.67165 28.44981 19397 ft 361 kts 270°
2026-05-01 08:54 41.67207 28.41611 19967 ft 363 kts 270°
2026-05-01 08:54 41.67246 28.38254 20520 ft 365 kts 270°
2026-05-01 08:54 41.67284 28.34848 21092 ft 367 kts 269°
2026-05-01 08:55 41.67317 28.31424 21654 ft 369 kts 270°
2026-05-01 08:55 41.67349 28.27973 22191 ft 372 kts 270°
2026-05-01 08:55 41.67383 28.24492 22735 ft 374 kts 269°
2026-05-01 08:55 41.67415 28.20994 23268 ft 376 kts 269°
2026-05-01 08:56 41.67443 28.17495 23773 ft 378 kts 269°
2026-05-01 08:56 41.67468 28.13959 24194 ft 381 kts 269°
2026-05-01 08:56 41.67496 28.10411 24595 ft 383 kts 269°
2026-05-01 08:56 41.67583 28.06874 24976 ft 386 kts 274°
2026-05-01 08:57 41.68116 28.03331 25366 ft 392 kts 284°
2026-05-01 08:57 41.69167 27.99941 25765 ft 399 kts 295°
2026-05-01 08:57 41.70639 27.96766 26137 ft 403 kts 299°
2026-05-01 08:57 41.72172 27.93606 26520 ft 406 kts 299°
2026-05-01 08:58 41.73711 27.90423 26901 ft 408 kts 298°
2026-05-01 08:58 41.75257 27.87219 27260 ft 411 kts 298°
2026-05-01 08:58 41.76810 27.83993 27617 ft 413 kts 298°
2026-05-01 08:58 41.78373 27.80748 27974 ft 416 kts 298°
2026-05-01 08:59 41.79948 27.77481 28322 ft 418 kts 298°
2026-05-01 08:59 41.81526 27.74200 28656 ft 420 kts 298°
2026-05-01 08:59 41.83112 27.70889 28994 ft 422 kts 299°
2026-05-01 08:59 41.84703 27.67568 29344 ft 425 kts 299°
2026-05-01 09:00 41.86305 27.64221 29687 ft 427 kts 299°
2026-05-01 09:00 41.87914 27.60859 30045 ft 430 kts 299°
2026-05-01 09:00 41.89534 27.57474 30361 ft 432 kts 299°
2026-05-01 09:00 41.91163 27.54068 30647 ft 433 kts 299°
2026-05-01 09:01 41.92789 27.50663 31028 ft 432 kts 299°
2026-05-01 09:01 41.94390 27.47309 31374 ft 432 kts 299°
2026-05-01 09:01 41.96010 27.43907 31720 ft 432 kts 300°
2026-05-01 09:01 41.97631 27.40496 32068 ft 432 kts 300°
2026-05-01 09:02 41.99247 27.37089 32428 ft 432 kts 299°
2026-05-01 09:02 42.00861 27.33679 32781 ft 432 kts 299°
2026-05-01 09:02 42.02479 27.30259 33117 ft 432 kts 299°
2026-05-01 09:02 42.04091 27.26843 33445 ft 432 kts 299°
2026-05-01 09:03 42.05701 27.23430 33781 ft 432 kts 299°
2026-05-01 09:03 42.07501 27.20184 34115 ft 436 kts 308°
2026-05-01 09:03 42.09533 27.17145 34385 ft 436 kts 309°
2026-05-01 09:03 42.11563 27.14107 34639 ft 436 kts 308°
2026-05-01 09:04 42.13589 27.11067 34917 ft 435 kts 308°
2026-05-01 09:04 42.15583 27.08066 35182 ft 435 kts 308°
2026-05-01 09:04 42.17596 27.05032 35453 ft 434 kts 308°
2026-05-01 09:04 42.19612 27.01995 35719 ft 434 kts 308°
2026-05-01 09:05 42.21627 26.98961 35985 ft 433 kts 308°
2026-05-01 09:05 42.23632 26.95933 36197 ft 434 kts 309°
2026-05-01 09:05 42.27345 26.89591 36254 ft 426 kts 294°
2026-05-01 09:06 42.28313 26.85888 36250 ft 422 kts 279°
2026-05-01 09:06 42.28561 26.81950 36247 ft 421 kts 271°
2026-05-01 09:06 42.28693 26.74034 36255 ft 422 kts 271°
2026-05-01 09:07 42.28815 26.66110 36261 ft 422 kts 271°
2026-05-01 09:07 42.28938 26.58219 36264 ft 423 kts 271°
2026-05-01 09:08 42.29059 26.50270 36273 ft 423 kts 271°
2026-05-01 09:08 42.29157 26.43624 36279 ft 424 kts 271°
2026-05-01 09:09 42.29258 26.35697 36283 ft 424 kts 271°
2026-05-01 09:09 42.29356 26.27729 36298 ft 425 kts 271°
2026-05-01 09:10 42.29456 26.19729 36283 ft 425 kts 271°
2026-05-01 09:10 42.29548 26.11736 36284 ft 426 kts 271°
2026-05-01 09:11 42.29636 26.03740 36295 ft 426 kts 271°
2026-05-01 09:11 42.29719 25.95794 36297 ft 425 kts 271°
2026-05-01 09:12 42.29797 25.87797 36307 ft 425 kts 271°
2026-05-01 09:12 42.29870 25.79813 36303 ft 425 kts 271°
2026-05-01 09:13 42.29933 25.71825 36307 ft 425 kts 271°
2026-05-01 09:13 42.29987 25.63836 36309 ft 425 kts 271°
2026-05-01 09:14 42.30040 25.55848 36317 ft 425 kts 271°
2026-05-01 09:14 42.30090 25.47908 36311 ft 426 kts 271°
2026-05-01 09:15 42.30129 25.39922 36314 ft 426 kts 271°
2026-05-01 09:15 42.30161 25.31888 36310 ft 427 kts 271°
2026-05-01 09:16 42.30196 25.23910 36322 ft 426 kts 271°
2026-05-01 09:17 42.30237 25.11888 36338 ft 425 kts 271°
2026-05-01 09:17 42.30267 24.99924 36329 ft 426 kts 270°
2026-05-01 09:18 42.30273 24.87894 36329 ft 427 kts 270°
2026-05-01 09:19 42.30266 24.75874 36334 ft 427 kts 270°
2026-05-01 09:20 42.30262 24.63852 36331 ft 427 kts 270°
2026-05-01 09:21 42.30220 24.47851 36322 ft 427 kts 270°
2026-05-01 09:21 42.30183 24.35837 36324 ft 426 kts 270°
2026-05-01 09:22 42.30111 24.19849 36318 ft 426 kts 270°
2026-05-01 09:23 42.30028 24.07891 36311 ft 426 kts 270°
2026-05-01 09:24 42.29946 23.95854 36302 ft 426 kts 270°
2026-05-01 09:25 42.29812 23.79864 36300 ft 427 kts 270°
2026-05-01 09:26 42.29708 23.67819 36299 ft 427 kts 270°
2026-05-01 09:26 42.29574 23.55754 36292 ft 428 kts 270°
2026-05-01 09:27 42.29431 23.43756 36281 ft 428 kts 270°
2026-05-01 09:28 42.29340 23.35705 36270 ft 428 kts 270°
2026-05-01 09:28 42.29239 23.27651 36273 ft 429 kts 270°
2026-05-01 09:29 42.29072 23.15609 36274 ft 429 kts 270°
2026-05-01 09:30 42.28676 23.03511 36261 ft 431 kts 261°
2026-05-01 09:30 42.24993 22.92501 36243 ft 437 kts 239°
2026-05-01 09:31 42.21680 22.85603 36256 ft 437 kts 240°
2026-05-01 09:32 42.16755 22.75280 36261 ft 437 kts 240°
2026-05-01 09:32 42.11793 22.64947 36261 ft 437 kts 240°
2026-05-01 09:33 42.09253 22.57660 36259 ft 431 kts 257°
2026-05-01 09:34 42.07322 22.45854 36258 ft 429 kts 259°
2026-05-01 09:34 42.05389 22.34125 36254 ft 430 kts 259°
2026-05-01 09:35 42.03457 22.22359 36256 ft 429 kts 259°
2026-05-01 09:36 42.02165 22.14555 36254 ft 429 kts 259°
2026-05-01 09:36 42.00864 22.06710 36254 ft 429 kts 259°
2026-05-01 09:37 41.99561 21.98898 36270 ft 428 kts 259°
2026-05-01 09:37 41.97589 21.87179 36279 ft 428 kts 259°
2026-05-01 09:38 41.95611 21.75484 36276 ft 428 kts 259°
2026-05-01 09:39 41.93623 21.63810 36261 ft 429 kts 259°
2026-05-01 09:39 41.92377 21.55982 36261 ft 428 kts 261°
2026-05-01 09:40 41.90705 21.44208 36273 ft 428 kts 261°
2026-05-01 09:41 41.89564 21.36360 36279 ft 428 kts 261°
2026-05-01 09:41 41.87797 21.24620 36276 ft 428 kts 261°
2026-05-01 09:42 41.86615 21.16838 36276 ft 428 kts 261°